Theta_e
312 312 313 314 315 316 316 316 315 316 316 315 315 315 317 318 321 326 332 334 341 344 344 350 350 349 349 345 344 344 345 346 346 346 345 343 345 343 344 344 343 341 344 344 345
309 310 311 312 313 314 315 316 316 316 316 316 315 315 316 318 322 330 330 331 335 344 350 349 348 348 346 342 343 345 345 345 344 344 344 343 344 344 344 343 343 343 344 345 345
308 308 308 309 310 311 312 314 316 316 316 316 316 315 316 318 327 338 331 331 335 342 349 346 346 347 344 343 342 342 344 343 343 342 342 343 343 344 345 345 344 344 345 345 344
308 308 308 309 309 309 310 312 314 315 316 316 316 315 316 318 336 337 331 332 335 342 349 347 346 346 346 343 342 343 342 342 343 341 342 343 343 344 345 344 344 345 345 344 343
308 309 309 309 310 310 310 310 313 315 316 316 317 315 316 326 331 330 331 332 335 344 346 347 345 346 348 344 345 344 343 343 343 343 341 342 344 344 344 345 345 345 344 345 344
309 309 309 310 310 311 311 311 312 315 316 316 317 316 322 327 331 332 333 331 344 346 345 344 345 347 346 346 346 344 344 344 344 344 343 340 343 343 343 345 345 345 344 344 345
309 310 310 310 311 312 312 311 314 315 316 316 317 316 323 327 334 340 342 342 345 344 343 342 343 344 346 347 345 345 347 346 345 345 345 340 341 345 343 344 345 346 346 347 347
310 310 311 311 312 312 312 313 316 316 316 316 317 317 325 322 332 340 342 344 344 342 338 338 340 344 348 347 346 347 347 350 347 345 344 346 343 344 343 343 344 345 346 347 347
311 311 311 311 312 312 312 315 320 322 317 316 320 324 323 320 322 337 341 343 343 343 341 339 342 344 347 349 349 352 356 348 349 345 345 346 343 342 342 341 344 343 344 345 346
312 312 312 311 311 312 313 318 324 322 318 316 325 322 322 322 322 328 338 338 342 341 340 339 344 347 348 350 357 353 349 347 348 346 345 344 343 342 342 342 342 343 343 343 343
312 313 313 311 310 311 316 324 327 328 328 325 325 323 322 324 324 326 327 338 339 340 341 340 345 346 347 347 349 348 348 348 347 346 346 345 344 344 343 344 343 343 343 343 344
312 313 313 310 309 312 322 326 322 321 325 325 325 322 323 325 325 326 328 332 334 341 340 344 345 345 346 344 345 345 349 349 349 346 346 344 344 345 344 344 343 344 344 344 344
314 313 313 310 311 316 323 322 320 322 326 326 323 324 323 323 326 327 329 331 336 339 341 344 345 344 341 343 346 346 348 348 349 348 348 343 344 345 343 342 342 342 342 342 343
316 314 313 310 316 315 323 321 320 322 329 328 326 324 323 324 325 327 329 333 336 340 341 342 342 341 341 342 344 349 349 348 351 352 353 344 352 344 343 343 342 341 341 342 344
316 316 313 310 310 317 321 319 321 323 332 328 325 325 324 324 325 327 328 332 335 338 340 342 340 340 341 343 343 349 348 348 349 353 354 349 353 346 344 344 343 343 342 341 343
316 316 314 314 312 314 316 319 323 327 329 325 327 327 326 324 326 327 328 331 333 336 339 339 339 341 342 341 343 346 346 348 348 352 358 350 351 348 345 345 345 343 342 342 343
316 316 314 310 318 315 316 322 330 330 327 327 327 326 327 325 326 327 329 332 333 337 340 339 340 341 341 344 345 346 348 353 354 355 357 344 354 349 343 343 344 344 342 343 343
315 316 311 310 313 312 318 327 332 329 328 328 327 327 326 326 325 327 328 331 333 336 339 342 342 342 342 346 347 347 348 359 358 350 350 344 348 346 341 341 341 342 342 341 342
315 317 319 320 317 314 321 328 328 329 326 327 327 327 328 326 326 326 328 329 333 335 338 341 342 341 342 341 343 346 352 345 352 347 346 344 347 343 342 340 341 342 341 341 341
314 317 321 318 316 315 322 326 328 327 325 325 327 327 327 327 326 326 327 329 330 334 337 339 341 341 341 341 342 345 345 351 348 344 350 346 345 346 341 341 341 343 338 340 341
316 318 320 318 315 316 322 325 326 326 324 325 326 329 328 328 327 326 327 328 329 332 336 337 340 343 342 343 343 343 344 346 348 347 349 344 346 346 342 342 342 340 339 340 340
316 322 319 318 319 319 321 323 321 325 325 324 325 327 327 328 328 326 327 329 328 330 334 336 338 343 343 342 342 342 343 343 349 345 346 344 346 341 341 342 340 342 340 339 340
315 316 317 317 323 324 322 321 321 323 324 325 324 324 326 326 328 327 327 328 328 329 332 334 337 340 345 343 343 342 343 344 344 346 343 342 344 341 340 342 342 341 339 339 342
315 318 320 321 318 321 323 324 322 320 320 322 324 324 324 326 327 328 327 328 327 328 326 332 335 338 344 346 343 342 343 343 344 345 344 342 343 340 341 343 341 340 341 341 343
316 318 319 318 324 324 323 322 324 324 321 320 322 323 324 325 327 327 328 328 328 326 328 330 334 337 338 340 342 342 342 343 343 342 343 342 341 340 342 342 340 339 340 342 346
313 315 316 315 315 317 318 320 323 324 324 323 322 322 323 324 326 328 327 328 328 329 329 330 333 336 339 340 341 342 341 342 342 341 342 343 342 339 339 340 339 339 340 343 344
311 312 312 313 313 315 317 318 319 322 322 323 324 325 323 323 323 325 326 327 328 329 329 329 331 336 338 338 341 342 343 342 342 341 340 344 342 340 340 340 341 341 341 343 346
Wind_Speed
10 11 12 12 12 13 14 13 13 12 11 11 10 8 8 7 8 5 3 4 3 5 7 7 5 5 7 5 5 5 4 7 13 15 13 12 13 11 10 12 12 16 21 19 15
10 10 11 12 13 13 14 14 13 12 12 11 11 8 7 7 7 9 9 4 4 8 12 7 9 10 8 5 3 10 10 12 12 14 14 13 14 13 15 16 17 18 20 17 14
12 12 12 12 13 13 14 14 13 12 12 10 11 8 6 4 6 6 9 7 7 7 7 2 3 11 8 12 5 12 10 12 15 16 14 15 14 17 17 11 18 19 17 15 13
13 12 12 13 13 13 14 14 14 12 11 10 10 8 5 4 6 3 8 9 9 9 6 6 11 11 5 9 3 12 11 15 14 15 13 13 13 8 19 19 19 18 17 16 14
16 15 13 13 13 13 14 14 14 12 11 9 9 7 3 8 4 2 6 11 12 8 9 6 7 3 8 8 5 13 11 15 13 14 13 14 12 13 16 19 19 17 16 15 14
15 16 16 15 15 13 14 15 13 12 10 8 8 6 3 15 4 4 5 12 11 9 8 6 4 6 4 4 4 15 13 15 11 13 10 11 15 16 16 16 17 16 16 15 14
15 15 15 16 16 15 13 14 12 11 8 7 6 5 8 4 6 8 9 14 10 9 7 3 4 13 8 7 10 16 15 13 11 9 7 14 9 14 15 15 14 13 12 15 14
16 15 16 16 16 15 14 13 12 8 5 5 5 4 8 10 6 10 10 13 12 9 5 6 8 6 7 11 13 13 17 14 11 8 6 11 9 15 15 16 15 17 14 13 12
16 16 16 16 16 14 13 11 8 5 1 5 2 5 11 7 14 13 12 15 13 11 9 6 8 14 7 14 14 22 8 16 11 7 8 10 13 14 16 16 14 16 14 13 11
16 16 16 16 16 14 10 8 5 2 2 5 5 7 12 13 16 16 15 12 16 12 10 11 12 11 14 6 8 16 10 9 17 9 10 10 13 14 15 16 14 17 15 15 17
17 16 16 17 16 11 6 6 5 4 12 12 7 6 8 10 13 16 17 16 15 16 16 16 14 4 14 24 29 14 7 12 13 12 10 8 15 16 16 16 15 11 14 11 12
18 16 15 16 12 5 5 4 4 4 9 17 15 16 6 8 15 21 20 18 17 17 19 11 10 10 18 5 4 7 11 8 13 11 4 6 17 15 16 14 13 12 11 12 12
18 17 15 12 5 5 2 1 4 7 8 12 19 18 16 14 18 28 26 26 19 20 19 15 12 14 6 9 9 10 6 11 8 11 7 12 11 16 13 13 14 14 17 17 15
18 17 15 7 3 4 2 3 8 4 6 14 14 14 19 14 18 27 29 27 17 22 15 14 12 8 8 10 9 7 18 9 11 8 6 7 3 15 16 13 11 13 14 15 15
17 17 13 9 4 1 3 5 6 3 6 11 14 10 19 19 16 23 30 31 22 21 13 14 7 11 11 7 5 4 26 10 10 19 19 22 2 18 19 17 16 16 14 16 19
16 16 12 6 4 7 5 6 3 6 5 8 10 13 18 22 18 30 21 31 24 18 16 14 8 7 2 4 7 15 10 11 12 15 3 14 5 11 16 17 18 14 15 14 19
15 14 10 3 1 5 5 4 6 10 4 8 9 18 21 20 21 19 25 26 20 20 20 19 14 6 8 9 7 12 15 10 8 8 8 12 18 9 18 15 15 20 17 15 15
16 11 6 3 6 6 3 8 9 1 7 3 3 13 20 22 25 21 24 24 28 25 15 17 16 14 12 9 10 14 8 3 3 4 15 6 5 12 20 18 17 19 19 19 18
14 7 2 4 5 6 9 9 6 8 5 4 9 11 17 21 19 22 24 27 28 28 24 21 18 21 18 13 12 5 14 16 12 14 8 8 12 9 17 16 19 19 20 17 15
13 3 3 6 3 7 9 15 5 4 7 7 13 13 16 21 21 24 23 24 28 30 28 17 14 16 15 9 13 14 8 12 5 4 7 10 11 15 17 18 16 17 19 20 16
8 7 2 1 3 11 10 13 8 7 5 8 11 7 14 14 22 20 23 20 27 29 26 26 15 18 16 14 16 11 12 3 8 9 2 9 9 17 19 18 17 19 20 22 21
6 4 2 0 10 13 12 15 3 9 7 11 7 14 10 14 13 23 23 21 25 30 31 28 13 13 18 17 17 13 15 14 12 9 5 7 13 17 19 19 22 20 22 23 20
11 10 4 5 6 8 11 14 8 11 14 10 11 12 6 11 8 13 22 7 3 23 26 23 21 11 19 19 12 10 16 16 16 12 7 3 13 18 21 20 23 21 23 21 19
7 4 7 8 15 12 15 13 14 13 16 17 15 15 10 13 10 10 24 8 4 14 6 15 25 19 16 17 19 19 18 17 14 7 9 14 20 21 20 20 21 25 22 20 19
3 3 4 5 6 9 12 15 12 14 16 12 17 18 13 15 17 17 16 10 8 11 12 12 23 27 24 15 19 20 20 19 16 13 7 22 19 22 22 20 23 26 25 23 21
7 6 6 18 20 16 13 16 18 16 18 16 16 16 19 19 18 14 18 21 16 18 16 20 21 25 26 24 19 8 21 18 13 15 9 14 19 20 22 24 27 26 25 23 22
7 7 9 10 14 12 13 16 19 17 20 22 19 16 20 19 24 21 16 14 18 21 22 22 20 22 23 19 19 16 25 16 14 12 12 13 26 25 22 24 27 27 26 24 23
Wind_Direction
332 328 324 322 319 317 316 313 312 314 317 314 311 301 280 269 273 274 307 156 185 165 135 141 174 196 197 205 241 251 116 93 92 101 110 123 89 95 111 102 80 77 108 120 127
337 331 325 322 320 317 313 311 309 308 310 310 310 307 286 278 257 250 238 210 156 170 140 173 157 195 194 164 240 238 90 61 84 113 116 121 116 113 109 102 96 97 109 119 123
342 338 333 327 322 318 314 309 307 305 302 304 306 308 286 286 252 152 214 200 161 171 173 267 173 247 160 181 197 72 93 103 84 103 116 114 138 132 95 107 123 122 127 129 127
340 338 335 330 325 320 315 309 304 303 298 296 301 306 276 200 232 176 187 183 166 167 219 232 231 221 196 97 94 93 101 99 108 121 134 106 136 124 138 107 118 123 124 132 135
338 335 335 330 324 321 315 308 303 301 295 286 293 306 237 234 234 199 187 180 173 171 222 255 273 287 244 127 185 107 103 115 126 115 102 130 111 104 111 117 118 122 132 131 118
334 333 333 329 323 322 314 308 305 301 291 275 278 298 243 244 149 212 171 180 180 195 228 241 14 324 83 83 189 118 126 119 145 106 125 111 126 123 124 129 128 138 128 124 125
334 333 330 325 322 322 315 309 310 302 286 260 257 280 245 234 176 193 178 180 189 200 231 247 265 261 161 133 124 135 133 140 127 139 121 124 171 125 146 140 146 134 131 121 123
335 334 329 323 319 319 315 314 316 311 283 236 230 239 262 189 176 177 179 185 196 209 231 255 243 267 252 126 173 158 161 146 138 154 141 204 116 135 161 150 159 145 144 153 131
335 335 329 322 317 317 313 317 324 342 292 173 178 205 227 206 203 186 181 194 196 203 226 255 209 225 177 203 194 96 253 122 142 176 158 206 133 154 170 167 158 147 156 157 158
334 336 331 321 317 318 313 316 306 327 139 154 229 217 228 213 192 188 183 194 189 193 214 228 231 218 213 186 356 267 152 140 129 158 211 130 127 164 180 177 173 165 162 175 156
333 335 329 322 323 325 327 327 279 208 214 220 223 207 130 160 170 189 188 181 195 203 222 206 229 277 312 142 193 239 126 120 106 147 198 111 145 163 185 179 168 180 162 175 170
331 332 329 327 330 344 28 320 27 337 293 238 228 228 193 207 194 199 185 191 201 209 228 193 226 224 230 5 254 181 134 140 127 162 221 192 146 161 185 189 167 189 156 161 177
332 331 332 337 347 17 359 149 345 331 258 203 213 215 209 207 217 190 190 205 197 217 216 222 139 206 205 173 225 187 137 147 165 159 224 177 136 161 181 181 172 181 166 169 150
331 330 334 352 45 336 204 290 330 300 267 159 192 211 193 206 219 200 199 202 212 222 206 229 241 197 209 249 229 306 150 182 148 133 231 198 211 174 168 189 179 179 190 179 142
329 326 333 329 264 317 256 311 317 279 254 144 136 141 184 203 179 213 197 214 226 224 212 226 200 195 241 257 130 171 256 155 174 164 226 166 306 155 161 175 177 206 177 152 154
329 320 329 341 295 253 294 300 300 231 243 148 162 192 190 204 220 184 194 216 225 226 231 228 183 214 195 119 248 170 177 184 200 226 201 200 73 157 170 169 165 179 156 159 145
329 315 312 269 134 279 285 245 225 247 107 155 189 186 197 191 212 204 193 204 212 221 207 221 189 176 237 178 185 217 198 189 203 208 239 109 152 170 146 167 165 156 169 172 148
333 314 312 261 249 244 232 230 249 309 193 54 259 191 205 196 203 206 191 206 214 224 205 207 195 178 209 217 187 230 187 45 249 281 118 140 111 105 138 158 151 150 174 153 175
344 355 349 306 264 206 227 223 232 277 17 244 181 228 212 210 198 205 212 209 204 220 229 200 215 172 200 218 251 226 144 235 270 152 187 134 90 105 138 161 156 167 137 153 166
352 326 247 304 215 189 237 252 276 343 310 255 255 201 211 210 202 207 210 212 212 210 234 240 209 191 183 225 238 224 324 208 161 235 117 128 161 133 157 162 170 137 161 150 134
1 283 297 334 163 216 234 237 257 199 246 270 259 274 261 203 208 221 218 212 212 206 223 243 242 190 177 207 219 205 243 262 314 304 307 146 127 138 159 166 166 159 172 148 144
325 282 331 228 238 229 242 253 293 286 217 254 270 291 288 269 224 217 220 217 207 218 209 231 248 185 206 205 233 253 220 204 226 146 164 92 107 141 159 161 168 165 156 148 148
318 293 300 211 257 247 234 263 273 263 257 238 242 246 228 271 258 252 229 199 249 217 219 209 236 244 233 197 214 235 242 260 255 314 146 265 133 146 162 160 168 159 131 136 143
306 297 190 217 271 285 292 285 255 219 257 268 259 259 239 244 236 257 230 139 232 245 320 250 223 227 219 218 192 207 248 233 267 203 143 110 139 145 159 161 163 133 145 151 158
281 14 3 297 258 317 294 288 287 272 222 254 246 248 248 243 231 225 262 227 205 238 259 238 226 233 234 256 198 199 214 225 249 276 282 138 153 155 163 164 145 149 159 161 158
322 341 323 289 284 277 268 263 267 261 270 235 239 246 236 242 250 220 227 233 211 208 220 224 232 234 243 197 269 220 201 208 199 253 273 268 148 154 160 161 152 160 163 165 165
333 299 287 288 283 274 268 270 271 271 265 270 275 240 247 235 246 262 288 231 244 214 210 218 222 224 234 214 234 197 237 197 200 202 258 257 144 150 164 162 166 165 169 171 168